Find Starlink 32033

NORAD ID: 60144 Int'l Des: 2024-120 Owner: SPXS Country: US Constellation: starlink operational
LEOCIRCULAR

Live Position

Loading 3D Globe...

About Starlink 32033

Description loading...

Upcoming Passes

Passes for default location (London). Set your location on the main map for personalized predictions.

Altitude History

Loading altitude history...

Two-Line Element Set

1 60144U 24120K 26127.18025968 .00000435 00000-0 26822-4 0 9997
2 60144 53.1618 48.0816 0001336 83.8481 276.2672 15.30200950105332
Epoch: May 7, 2026 • Age: 11 hours

Current Status

Altitude 491.8 km
Velocity 7.62 km/s
Sub-Earth Point -46.47°S, 96.36°W
Launch Date Jun 27, 2024
Age 1.8 years
Type internet

Technical Details

Classification Payload
Mass 730.00 kg
Dry Mass 700.00 kg
Total Mass 730.00 kg
Length 0.30 m
Diameter 4.10 m
Span 29.00 m
Shape Box + pan
Manufacturer SPXS
Bus Type Starlink V2M
Phase Status In Orbit
Owner/State SPXS/US

Most Searched